Regional Weather Roundup
Issued by NWS Wakefield, VA

Home | Current Version | Previous Version | Text Only | Print | Product List | Glossary Off
Versions: 1 2 3 4 5 6 7 8 9 10 11 12 13 14 15 16 17 18 19 20 21 22 23 24 25 26 27 28 29 30 31 32 33 34 35 36 37 38 39 40 41 42 43 44 45 46 47 48 49 50

000
ASUS41 KAKQ 181210
RWRAKQ

REGIONAL WEATHER ROUNDUP
NATIONAL WEATHER SERVICE WAKEFIELD VA
700 AM EST THU DEC 18 2014

Note: "fair" indicates few or no clouds below 12,000 feet with no
significant weather and/or obstructions to visibility. * = Denotes
station may not report precipitation (e.g., rain,snow,etc.),
thunder or fog.

VAZ042-051-052>054-056-181300-
NORTHERN VIRGINIA

CITY           SKY/WX    TMP DP  RH WIND       PRES   REMARKS
WASH NATIONAL  PTCLDY    38  19  46 NW13G22   30.15R
DULLES         PTCLDY    32  20  61 NW9       30.15R
FORT BELVOIR   CLEAR     35  19  52 W7        30.16R
QUANTICO       PTCLDY    34  20  56 NW7       30.18R
FREDERICKSBRG* CLEAR     33  23  68 NW6       30.16R
STAFFORD*      CLEAR     30  20  66 NW8       30.20S
WARRENTON      CLEAR     30  25  82 SE5       30.16R
CULPEPER*      CLEAR     27  21  80 CALM      30.16R
MANASSAS*      MOCLDY    34  21  60 NW13      30.16R WCI  25
LEESBURG*      MOCLDY    34  23  64 NW13      30.15S WCI  25
WINCHESTER     CLOUDY    34  18  51 W10       30.14R
FRONT ROYAL*   MOSUNNY   32  21  64 W5        30.14R
LURAY*         SUNNY     32  23  69 N6        30.15R
$$

VAZ048-049-060>072-079>083-181300-
CENTRAL AND SOUTH CENTRAL VIRGINIA

CITY           SKY/WX    TMP DP  RH WIND       PRES   REMARKS
RICHMOND       MOCLDY    31  24  75 N3        30.16R
CHESTERFIELD*  PTSUNNY   27  16  63 CALM      30.16R
PETERSBURG*    MOCLDY    28  27  96 CALM      30.16S
HANOVER        PTCLDY    27  24  89 CALM      30.18R
TAPPAHANNOCK*  PTCLDY    34  19  54 CALM      30.16R
QUINTON*       MOSUNNY   29  24  82 CALM      30.16R
CHARLOTTSVILLE CLEAR     32  20  61 CALM      30.15R
GORDONSVILLE*  SUNNY     26  22  87 CALM      30.15R
ORANGE*        CLEAR     27  23  86 CALM      30.17R
LOUISA*        CLEAR     25  21  86 CALM      30.14R
BUMPASS*       SUNNY     28  24  85 CALM      30.16R
FARMVILLE*     MOCLDY    29  25  86 CALM      30.15R
CREWE*         SUNNY     29  26  89 CALM      30.15R
FORT PICKETT*  SUNNY     29  25  87 CALM      30.15R
CHASE CITY*    SUNNY     34  28  77 CALM      30.15S
CLARKSVILLE*   SUNNY     34  27  75 NW3       30.15S
SOUTH HILL*    CLEAR     28  26  94 CALM      30.21R
LAWRENCEVILLE* SUNNY     29  29  97 CALM      30.16R
EMPORIA*       CLEAR     28  27  93 CALM      30.18R
$$

VAZ088>098-181300-
SOUTHEAST VIRGINIA

CITY           SKY/WX    TMP DP  RH WIND       PRES   REMARKS
NORFOLK        CLEAR     39  27  62 N10       30.14R
VIRGINIA BEACH PTCLDY    39  28  64 N9        30.13R
NORFOLK NAVAL  PTCLDY    40  26  57 N16       30.16R
WEST POINT*    CLEAR     34  24  65 CALM      30.18R
SALUDA*        FAIR      35  24  66 NW6       30.15R
NEWPORT NEWS   CLEAR     38  23  55 N12G17    30.15R
LANGLEY AFB    CLEAR     35  24  63 NW8       30.16R
FORT EUSTIS    CLEAR     37  24  59 N9        30.14R
WILLIAMSBURG*  CLEAR     36  28  75 N6        30.16R
HR EXEC AP*    SUNNY     30  25  80 N3        30.17R
FRANKLIN*      CLEAR     27  27 100 CALM      30.16R
WAKEFIELD      CLEAR     28  24  85 CALM      30.16R
$$

VAZ020-022-025-037-045-181300-
WEST CENTRAL AND SOUTHWEST VIRGINIA

CITY           SKY/WX    TMP DP  RH WIND       PRES   REMARKS
STAUNTON*      CLEAR     23  19  82 CALM      30.15R
WAYNESBORO*    SUNNY     29  18  61 NW6       30.12R
HOT SPRINGS VA PTCLDY    20  20  98 NW12      29.98S WCI   8
LYNCHBURG      MOCLDY    28  24  85 CALM      30.15S
DANVILLE       CLEAR     32  23  69 NE5       30.16S
SOUTH BOSTON*  SUNNY     28  25  88 CALM      30.16S
MARTINSVILLE   PTCLDY    30  27  89 N5        30.18R
ROANOKE        MOCLDY    34  20  56 VRB5      30.16S
BLACKSBURG     PTCLDY    28  20  72 W7        30.15R
DUBLIN*        PTCLDY    28  24  84 SW5       30.15R
MARION*        PTCLDY    28  24  87 SW6       30.15S
HILLSVILLE*    MOCLDY    28  22  77 NW15      30.08S WCI  16
RICHLANDS*     CLOUDY    27  21  79 W3        30.15R
WISE*          MOCLDY    28  25  86 CALM      30.16R
ABINGDON*      PTCLDY    28  26  89 CALM      30.18R
$$

MDZ021>025-VAZ099-100-181300-
SOUTHERN MARYLAND AND THE DELMARVA PENINSULA

CITY           SKY/WX    TMP DP  RH WIND       PRES   REMARKS
PATUXENT RIVER PTCLDY    33  20  58 W9        30.14R
BAY BRIDGE APT   N/A     36  21  55 NW10      30.12S
LEONARDTOWN    CLEAR     32  21  64 W5        30.15R
DOVER          MOCLDY    36  22  58 NW15      30.07R
GEORGETOWN     CLEAR     33  22  63 CALM      30.10R
EASTON         PTCLDY    37  21  52 NW14G22   30.15R
CAMBRIDGE      CLEAR     37  23  56 NW12G18   30.11R
SALISBURY      CLEAR     36  21  54 W5        30.11R
OCEAN CITY     CLEAR     31  22  69 NW3       30.10R
WALLOPS ISLAND CLEAR     32  25  75 NW3       30.12R
ACCOMACK*      CLEAR     36  23  60 NW7G16    30.12R
$$

NCZ012>017-030>032-181300-
NORTH CENTRAL AND EASTERN NORTH CAROLINA

CITY           SKY/WX    TMP DP  RH WIND       PRES   REMARKS
ROANOKE RAPIDS SUNNY     30  28  93 CALM      30.17R
RALEIGH        PTCLDY    35  25  66 CALM      30.15R
ELIZABETH CITY CLEAR     35  27  72 NW5       30.15R
AHOSKIE*       CLEAR     28  26  94 CALM      30.17R
EDENTON*         N/A     33  31  92 CALM      30.15R
CURRITUCK*     CLEAR     35  29  76 CALM      30.15R
KILL DEVIL HLS CLEAR     42  32  69 N8        30.12R
MANTEO         CLEAR     41  33  73 N7        30.13R
CAPE HATTERAS  CLEAR     45  40  82 VRB7      30.12R
TARBORO*       SUNNY     29  28  96 CALM      30.18R
GOLDSBORO      CLEAR     39  34  84 CALM      30.14R
WASHINGTON     CLEAR     35  30  83 N3        30.16R
GREENVILLE     CLEAR     34  32  93 CALM      30.17R
NEW BERN       CLEAR     40  31  70 N6        30.16R
WILMINGTON     CLEAR     38  36  92 CALM      30.14R
$$

VAZ048-181300-
ELSEWHERE

CITY           SKY/WX    TMP DP  RH WIND       PRES   REMARKS
HARRISBURG PA  CLOUDY    34  19  54 NW18      30.08R WCI  23
BALTIMORE      PTCLDY    32  18  56 W8        30.12R
ANNAPOLIS      CLEAR     36  20  52 W7        30.13R
ANDREWS AFB    CLEAR     34  19  54 NW16      30.12R WCI  24
PHILADELPHIA   PTCLDY    35  18  49 W10       30.06R
HENDERSON NC   CLEAR     35  24  63 NW6       30.15S
GREENSBORO     MOCLDY    37  24  59 NE5       30.14R
ROCKY MOUNT    CLEAR     33  27  78 CALM      30.17R
$$

VAZ100-181300-
MARINE

STATION/POSITION TIME  TEMP    WIND        PRES    WAVE   SWELL
                       AIR SEA DIR/SP/G            HT/PER HT/PER
                 (UTC) (F)     (DEG/KT/KT) (MB)    (FT/S) (FT/S)
CAPE MAY NJ      1200   38 44  310/  8/ 25 1018.0R
LEWES DE         1200   38 43  320/ 19/ 21 1018.7R
15NM E FENWICK I 1200   39 47              1017.9R   5/ 5
OCEAN-CITY-INLET 1200   34 46  310/  5/  7 1018.8R
WACHAPREAGUE VA  1200   37 45  300/  2/  7 1019.9R
THOMAS POINT MD  1200   36 42  320/ 14/ 17 1021.4R
GOOSES REEF MD   1200   38     VRB 14/ 19  1019.1F
COVE POINT MD    1200   35     330/ 10/ 13 1020.0R
SOLOMONS ISLAND  1200      44                N/A
BISHOPS HEAD MD  1200   36 40  320/  9/ 12 1019.4R
PINEY POINT MD   1200          330/ 20/ 22   N/A
POTOMAC MD       1200   39     330/ 19/ 23 1019.5S
CAMBRIDGE MD     1200   38 41  310/ 16/ 21 1019.6R
LEWISETTA VA     1200   37 44  320/ 11/ 16 1020.5R
RAPPAHANNOCK LGT 1200          330/ 23/ 26 1020.6R
STINGRAY PT      1200   38     340/ 12/ 16 1021.0R
YORK RVR RNG VA  1200   38     360/ 14/ 17 1020.1R
YORKTOWN VA      1200   37 46  330/ 10/ 13 1020.7R
JAMESTOWN VA     1200   36     360/  6/  8   N/A
DOMINION TERM VA 1200   38      10/  8/ 12 1020.7R
KIPTOPEKE VA     1200      50  360/ 12/ 15   N/A
CHES BAY BRIDGE  1200   40 46  340/ 17/ 20 1019.9R
CAPE HENRY VA    1200   40     350/ 20/ 22 1019.0R
CHESAPEAKE LGHT  1100   41     350/ 17/ 18 1020.1R
WILLOUBY STN VA  1200   38     350/ 16/ 18 1020.9R
S CRANEY ISL VA  1200          360/ 12/ 15 1020.5R
CAPE HENRY BUOY  1200      49                N/A     3/ 5
1ST LANDING BUOY 1200   41     350/ 16/ 19 1019.9R
CAPE CHARLES BUO 1200      48                N/A     3/ 4   2/11
64NM E OF VA BCH 1200   44 54  350/ 21/ 25 1018.6R   7/ 6   2/11
DUCK PIER NC     1200   42 48  330/ 12/ 13 1019.2R
44100 DUCK FRF   1200      52                N/A     5/ 5
44056 DUCK FRF   1200      49                N/A     4/ 5
OREGON INLET NC  1200   43 51  340/ 10/ 14 1019.7R
HATTERAS NC      1200   47 54   10/ 12/ 14 1019.8S
DIAMOND SHLS NC  1200   50                 1019.3R   3/ 3
CAPE LOOKOUT NC  1100   47     350/  9/ 10 1019.3R
$$



USA.gov is the U.S. government's official web portal to all federal, state and local government web resources and services.